Location: Colossi of Memnon
(25.7167°N, 32.6167°E)
Time: 11:26:06
(UTC+00:00)

ATLAS 5 CENTAUR R/B - Pass Details

Date: 05 March 2021
Orbit: 516 x 1142 km, 63.3° (Epoch: 08 April)

Event Time Altitude Azimuth Distance (km) Brightness Sun altitude
Exits shadow 02:49:25 38° 222° (SW) 800 1.8 -18.7°
Maximum altitude 02:50:46 73° 298° (WNW) 545 1.0 -18.4°
Drops below altitude 10° 02:54:45 10° 23° (NNE) 1,815 4.3 -17.5°
Sets 02:57:03 0° 25° (NNE) 2,768 5.3 -17.0°
